Location: Hermance
(46.3021°N, 6.2438°E)
Time: 00:26:01
(UTC+00:00)

Daily predictions for brighter satellites

Satellite Brightness Start Highest point End
(mag) Time Altitude Azimuth Time Altitude Azimuth Time Altitude Azimuth
STARLINK-1099 4.3 00:00:26 10° WNW 00:03:25 42° W 00:03:25 42° W
ATLAS CENTAUR R/B 4.0 00:03:02 10° NNW 00:04:42 17° NNE 00:07:09 10° ENE
STARLINK-1104 4.5 00:05:27 10° WNW 00:08:12 37° W 00:08:12 37° W
GEOS 3 Rocket 3.6 00:07:39 29° SE 00:10:23 80° NE 00:15:41 10° NW
Cosmos 1726 3.2 00:07:53 10° NNW 00:10:54 34° WNW 00:10:54 34° WNW
Cosmos 2058 Rocket 3.7 00:08:15 10° N 00:12:33 49° ENE 00:13:46 38° ESE
COSMOS 2455 2.9 00:11:40 44° S 00:13:25 63° ESE 00:19:22 10° NE
Meteor 1-29 3.3 00:10:29 10° NNE 00:13:32 57° ENE 00:13:32 57° ENE
Cosmos 2228 2.8 00:10:50 10° N 00:15:06 83° W 00:15:32 71° SSW
SJ 16-02 4.2 00:13:35 10° NNE 00:15:44 13° NE 00:17:54 10° E
Meteor 2-15 Rocket 4.5 00:12:42 10° NNW 00:18:50 68° W 00:20:55 42° SSW
SL-14 R/B 4.0 00:18:39 40° ESE 00:19:00 41° E 00:22:39 10° NNE
Cosmos 1953 3.7 00:16:09 10° NNW 00:19:26 27° W 00:19:26 27° W
IRAS Rocket 4.4 00:17:53 33° SSE 00:20:26 72° ENE 00:25:59 10° NNW
Cosmos 1340 Rocket 3.7 00:17:32 10° NNW 00:21:08 35° W 00:21:08 35° W
Okean 1-7 Rocket 3.9 00:22:03 49° SE 00:22:55 59° E 00:27:21 10° NNE
Cosmos 1174 3.9 00:23:33 51° ENE 00:23:33 51° ENE 00:26:31 10° NE
Cosmos 921 Rocket 4.1 00:23:34 30° ESE 00:24:14 31° E 00:28:03 10° NE
Cosmos 1300 3.5 00:20:38 10° N 00:24:18 43° ENE 00:25:04 38° ESE
BREEZE M DEB (TANK) 3.8 00:26:49 25° ENE 00:26:49 25° ENE 00:28:29 10° E
COSMOS 2487 2.9 00:24:28 10° NNW 00:27:18 49° WNW 00:27:18 49° WNW
Cosmos 1626 2.1 00:34:31 64° ESE 00:34:44 66° E 00:38:27 10° NNE
STARLINK-60 3.8 00:36:27 42° ENE 00:36:27 42° ENE 00:38:45 10° ENE
Cosmos 1656 Rocket 4.2 00:33:51 30° WSW 00:36:20 51° WNW 00:41:48 10° NNE
Cosmos 1606 Rocket 3.9 00:34:18 10° NNW 00:38:26 45° W 00:38:48 44° WSW
FALCON 9 R/B 3.5 00:38:25 34° SSW 00:40:28 39° SSE 00:57:01 10° ESE
Nadezhda 1 Rocket 4.4 00:35:48 10° N 00:41:53 59° ENE 00:45:52 22° SSE
MOZ.5/SAFIR/RUBIN 5/SL-8 4.1 00:44:16 30° SE 00:46:25 61° ENE 00:51:00 10° N
Meteor 2-21 4.5 00:45:34 38° SSW 00:48:05 74° W 00:54:18 10° N
Cosmos 2297 Rocket 3.6 00:43:09 10° NNW 00:48:24 37° NE 00:53:36 10° ESE
SL-4 R/B 2.3 00:49:12 46° SW 00:50:35 76° SSE 00:55:20 10° ENE
Cosmos 1437 3.0 00:52:48 55° ENE 00:52:48 55° ENE 00:55:34 10° NNE
NOSS 5 (C) 4.4 00:49:41 10° NW 00:52:55 85° SW 00:53:31 61° SSE
Cosmos 1674 4.1 00:53:21 25° W 00:53:44 26° WNW 00:56:56 10° NNW
SL-19 R/B 4.2 00:52:19 10° NNE 00:57:43 77° WNW 01:00:03 36° SSW
ATLAS CENTAUR R/B 1.5 00:56:56 45° WSW 00:58:09 70° NW 01:02:19 10° NNE
Cosmos 1777 Rocket 4.0 00:54:56 10° NNW 01:00:05 62° WSW 01:01:54 39° S
Timation 2 Rocket 3.9 00:54:04 10° NNW 01:00:28 81° WSW 01:04:30 23° SSE
SL-16 R/B 2.7 00:56:01 20° SSE 01:00:30 74° ENE 01:06:40 10° NNW
NOSS 3-4 (A) 3.9 00:57:31 23° WSW 01:01:10 56° NW 01:07:28 10° NE
NOSS 3-4 (C) 3.9 00:57:38 24° WSW 01:01:15 56° NW 01:07:35 10° NE
BREEZE-M R/B 3.3 01:01:08 44° S 01:01:38 46° SSE 01:04:44 10° ENE
FALCON 9 DEB 4.1 01:02:08 34° ESE 01:02:08 34° ESE 01:04:53 10° ENE
Spot 1 4.4 01:00:54 43° SSW 01:02:02 56° W 01:06:49 10° NNW
Cosmos 1602 Rocket 4.1 01:01:58 32° SSE 01:03:34 51° E 01:07:46 10° NNE
STARLINK-29 3.2 01:04:34 55° ESE 01:04:34 55° ESE 01:07:23 10° ENE
Cosmos 1455 4.0 01:03:24 10° NNE 01:06:40 27° ENE 01:09:23 13° SE
ATLAS 3B R/B 2.7 01:00:57 10° NW 01:07:38 61° WSW 01:12:43 19° SSE
CENTAUR R/B 3.8 01:04:04 10° NW 01:11:21 36° WSW 01:14:47 27° SSW
BREEZE-M DEB (TANK) 1.4 01:12:38 62° NW 01:12:49 66° NNW 01:15:04 10° ENE
GP-B 4.5 01:09:01 10° NNE 01:13:05 34° E 01:16:10 15° SE
Meteor 2-1 Rocket 4.3 01:08:35 10° N 01:14:07 71° ENE 01:18:03 20° SSE
Cosmos 1867 4.2 01:11:02 10° NW 01:15:54 33° WSW 01:16:44 32° SW
Cosmos 1745 Rocket 3.9 01:12:45 30° S 01:15:58 86° W 01:22:09 10° N
RESURS DK-1 2.4 01:19:17 41° SW 01:20:35 68° WNW 01:24:43 10° NNE
STARLINK-1218 4.5 01:19:39 10° NW 01:23:43 51° NNE 01:27:46 10° E
Cosmos 2227 Rocket 2.8 01:18:32 10° NNW 01:24:10 57° ENE 01:29:44 10° SE
Meteor 1-24 Rocket 4.2 01:22:03 28° SW 01:24:19 44° WNW 01:29:28 10° N
Cosmos 1356 Rocket 3.4 01:20:16 10° NNW 01:24:23 66° W 01:25:49 38° SSW
Cosmos 2369 Rocket 4.5 01:22:50 10° WNW 01:26:12 16° NW 01:29:33 10° N
Cosmos 1697 Rocket 4.3 01:23:11 13° SSE 01:27:08 27° ESE 01:31:49 10° NE
CZ-2D R/B 2.0 01:22:10 10° NNE 01:27:29 86° ESE 01:30:15 29° SSW
STARLINK-1254 4.4 01:24:38 10° NW 01:28:44 54° NNE 01:32:48 10° E
ADEOS II 3.2 01:25:12 10° NNE 01:30:05 37° E 01:34:08 14° SSE
ATLAS 2AS CENTAUR R/B 3.8 01:23:17 13° WSW 01:30:15 46° NW 01:37:48 10° NE
IKONOS-2 4.5 01:29:56 33° S 01:31:45 67° WSW 01:36:02 10° NNW
CZ-4C R/B 3.7 01:30:46 36° SSW 01:32:03 50° W 01:36:17 10° NNW
STARLINK-1231 4.3 01:29:38 10° NW 01:33:44 57° NNE 01:37:50 10° ESE
STARLINK-1228 3.0 01:32:12 10° WNW 01:35:30 57° SW 01:38:46 10° SE
STARLINK-1234 2.8 01:33:37 10° WNW 01:36:42 57° SW 01:37:02 53° S
Resurs 1-4 Rocket 2.1 01:31:56 10° NNE 01:37:14 77° WNW 01:40:11 27° SSW
STARLINK-1212 2.7 01:34:58 10° WNW 01:38:05 76° SSW 01:41:10 10° SE
STARLINK-1105 2.6 01:35:27 10° WNW 01:38:33 75° SSW 01:41:37 10° SE
STARLINK-1232 4.2 01:34:37 10° WNW 01:38:44 60° NNE 01:42:50 10° ESE
STARLINK-1209 3.0 01:35:54 10° WNW 01:38:42 49° WSW 01:38:42 49° WSW
USA 81 4.0 01:36:19 25° S 01:39:27 89° W 01:44:47 10° N
STARLINK-1247 2.7 01:36:22 10° WNW 01:39:29 74° SSW 01:42:35 10° SE
STARLINK-1227 2.6 01:36:49 10° WNW 01:39:55 73° SSW 01:42:59 10° SE
STARLINK-52 2.9 01:39:41 42° WSW 01:40:38 78° NNW 01:43:52 10° ENE
STARLINK-1226 2.7 01:37:40 10° WNW 01:40:47 72° SSW 01:43:53 10° SE
STARLINK-1215 2.7 01:38:36 10° WNW 01:41:43 70° SW 01:44:49 10° SE
Cosmos 1758 Rocket 3.9 01:39:23 23° S 01:41:56 62° E 01:46:15 10° NNE
ARIANE 5 R/B 4.1 01:37:44 10° NE 01:42:09 29° E 01:46:29 10° SSE
STARLINK-1217 2.7 01:40:23 10° WNW 01:43:29 68° SW 01:46:35 10° SE
STARLINK-1208 4.1 01:39:34 10° WNW 01:43:42 64° NNE 01:47:49 10° ESE
STARLINK-1229 2.7 01:41:18 10° WNW 01:44:24 67° SW 01:47:30 10° SE
NPP 3.6 01:39:16 10° NNE 01:44:40 78° WNW 01:47:57 25° SSW
H-2A R/B 4.4 01:41:28 10° ESE 01:44:54 24° ENE 01:48:24 10° N
STARLINK-1270 2.7 01:42:10 10° WNW 01:45:16 66° SW 01:48:22 10° SE
STARLINK-1189 2.7 01:44:01 10° WNW 01:47:06 63° SW 01:50:11 10° SE
STARLINK-1188 2.7 01:44:54 10° WNW 01:48:00 62° SW 01:51:04 10° SE
STARLINK-1235 3.0 01:45:38 10° WNW 01:48:37 47° SW 01:51:37 10° SE
STARLINK-1271 4.0 01:44:34 10° WNW 01:48:43 68° NNE 01:52:50 10° ESE
STARLINK-1187 2.9 01:46:01 10° WNW 01:49:03 53° SW 01:52:05 10° SE
Cosmos 1898 Rocket 3.7 01:44:04 10° NNW 01:49:27 75° ENE 01:54:45 10° SSE
Starlink 7 placeholder 4.3 01:49:43 16° NW 01:50:21 18° NNW 01:51:51 10° NNE
Meteor 1-21 Rocket 4.2 01:46:49 23° SSW 01:50:25 85° WNW 01:56:08 10° N
STARLINK-1191 2.8 01:47:23 10° WNW 01:50:26 59° SW 01:53:30 10° SE
Lacrosse 4 Rocket 3.6 01:47:07 10° NNW 01:50:58 29° NE 01:54:43 10° ESE
STARLINK-1221 2.8 01:48:14 10° WNW 01:51:19 58° SW 01:54:21 10° SE
Cosmos 1656 3.8 01:48:20 23° SSW 01:51:59 74° ESE 01:57:38 10° NNE
STARLINK-1222 2.8 01:49:09 10° WNW 01:52:12 56° SW 01:55:14 10° SE
STARLINK-1214 2.8 01:50:04 10° WNW 01:53:06 55° SW 01:56:08 10° SE
STARLINK-1154 3.8 01:49:33 10° WNW 01:53:42 72° NNE 01:57:50 10° ESE
CZ-4C R/B 3.1 01:50:43 17° S 01:53:58 37° ESE 01:59:12 10° NE
Cosmos 2084 3.7 01:52:18 26° SW 01:54:46 69° NW 01:59:15 10° NE
SJ 16-02 1.3 01:50:31 10° NNW 01:54:59 84° WSW 01:59:17 11° SSE
Cosmos 468 Rocket 4.1 01:52:22 22° S 01:55:42 73° ESE 02:00:50 10° NNE
Cosmos 1953 Rocket 4.3 01:54:38 14° SSE 01:58:16 52° E 02:02:35 10° NNE
STARLINK-1197 3.8 01:54:32 10° WNW 01:58:41 77° NNE 02:02:50 10° ESE
Cosmos 1937 Rocket 3.9 01:54:28 10° NNW 01:59:42 67° ENE 02:04:56 10° SSE
COSMOS 2455 4.2 01:54:47 11° WSW 01:59:47 30° NW 02:05:04 10° NNE
Cosmos 2369 4.5 01:55:55 15° S 02:00:21 46° ESE 02:05:43 10° NE
Meteor 2-10 Rocket 3.5 01:56:37 10° NNW 02:01:55 65° W 02:06:00 16° S
Cosmos 921 Rocket 4.4 02:00:21 18° WSW 02:02:32 26° WNW 02:06:12 10° N
STARLINK-1198 3.7 01:59:29 10° WNW 02:03:38 82° NNE 02:07:48 10° ESE
Cosmos 1709 Rocket 4.0 02:01:48 20° SSW 02:06:08 66° W 02:12:15 10° N
STARLINK-1199 3.6 02:04:30 10° WNW 02:08:39 87° NNE 02:12:48 10° ESE
STARLINK-1210 3.5 02:09:28 10° WNW 02:13:37 88° SSW 02:17:46 10° ESE
STARLINK-1320 2.8 02:14:52 26° SW 02:16:26 76° SSE 02:19:33 10° ENE
STARLINK-1322 2.8 02:15:11 26° SW 02:16:46 77° SSE 02:19:54 10° ENE
Cosmos 2219 3.6 02:11:38 10° NW 02:16:56 42° WSW 02:22:11 10° S
STARLINK-1324 2.8 02:15:32 26° SW 02:17:07 77° SSE 02:20:15 10° ENE
STARLINK-1294 2.8 02:15:47 26° SW 02:17:24 78° SSE 02:20:33 10° ENE
STARLINK-1261 2.8 02:16:10 25° SW 02:17:47 78° SSE 02:20:54 10° ENE
STARLINK-1325 2.8 02:16:30 25° SW 02:18:09 79° SSE 02:21:16 10° ENE
STARLINK-1333 2.8 02:16:48 25° SW 02:18:27 79° SE 02:21:35 10° ENE
STARLINK-1219 3.5 02:14:26 10° WNW 02:18:36 82° SSW 02:22:44 10° SE
STARLINK-1334 2.8 02:17:07 25° SW 02:18:47 80° SSE 02:21:55 10° ENE
STARLINK-1326 2.8 02:17:28 25° SW 02:19:09 80° SE 02:22:16 10° ENE
Cosmos 1980 Rocket 3.4 02:14:12 10° S 02:19:18 37° ESE 02:24:26 10° NE
STARLINK-1323 2.8 02:17:47 24° SW 02:19:29 81° SE 02:22:36 10° ENE
STARLINK-1338 3.1 02:17:39 23° SW 02:19:41 74° SSE 02:23:10 10° ENE
STARLINK-1349 2.8 02:18:06 24° SW 02:19:48 81° SSE 02:22:56 10° ENE
STARLINK-1336 2.8 02:18:27 24° SW 02:20:11 82° SSE 02:23:18 10° ENE
Cosmos 858 Rocket 4.5 02:15:05 10° NNW 02:20:23 83° WSW 02:25:40 10° SSE
STARLINK-1331 2.8 02:18:45 24° SW 02:20:29 82° SSE 02:23:37 10° ENE
STARLINK-1344 2.8 02:19:05 24° SW 02:20:49 83° SSE 02:23:57 10° ENE
STARLINK-1343 2.8 02:19:25 24° SW 02:21:10 83° SSE 02:24:17 10° ENE
STARLINK-1346 2.8 02:19:43 23° SW 02:21:31 84° SSE 02:24:41 10° ENE
STARLINK-1328 2.8 02:20:05 23° SW 02:21:52 84° SE 02:24:59 10° ENE
Cosmos 1328 3.8 02:19:19 18° SSW 02:22:07 67° W 02:26:06 10° N
STARLINK-1354 2.8 02:20:22 23° SW 02:22:10 85° SSE 02:25:17 10° ENE
STARLINK-1347 2.8 02:20:44 23° SW 02:22:32 85° SE 02:25:40 10° ENE
CRYOSAT 2 4.4 02:17:50 10° N 02:22:45 79° W 02:27:17 12° SSW
STARLINK-1357 2.8 02:21:02 23° SW 02:22:50 86° SSE 02:25:58 10° ENE
STARLINK-1335 2.8 02:21:22 22° WSW 02:23:11 86° SSE 02:26:19 10° ENE
STARLINK-1327 2.8 02:21:41 22° WSW 02:23:31 87° SE 02:26:39 10° ENE
STARLINK-1211 3.5 02:19:24 10° WNW 02:23:34 77° SSW 02:27:41 10° SE
STARLINK-1371 3.1 02:21:31 21° SW 02:23:43 79° SSE 02:27:13 10° ENE
STARLINK-1340 2.8 02:22:01 22° WSW 02:23:52 87° SSE 02:27:00 10° ENE
STARLINK-1356 2.8 02:22:21 22° WSW 02:24:13 88° SSE 02:27:21 10° ENE
ERS-2 2.4 02:20:44 10° SSE 02:24:22 71° ENE 02:28:02 10° N
STARLINK-1345 2.8 02:22:41 22° WSW 02:24:33 88° SSE 02:27:41 10° ENE
STARLINK-1355 2.8 02:22:59 22° WSW 02:24:53 89° SE 02:28:01 10° ENE
STARLINK-1321 2.8 02:23:18 21° WSW 02:25:12 89° SSE 02:28:21 10° ENE
STARLINK-1358 2.8 02:23:39 21° WSW 02:25:35 90° ENE 02:28:43 10° ENE
STARLINK-1341 3.1 02:23:29 20° SW 02:25:46 82° SSE 02:29:16 10° ENE
STARLINK-1332 2.8 02:23:57 21° WSW 02:25:53 90° WNW 02:29:01 10° ENE
STARLINK-1348 2.8 02:24:18 21° WSW 02:26:15 89° NW 02:29:23 10° ENE
STARLINK-1330 2.8 02:24:36 21° WSW 02:26:34 89° NNW 02:29:42 10° ENE
STARLINK-1363 2.8 02:24:56 21° WSW 02:26:54 88° NW 02:30:02 10° ENE
STARLINK-1337 2.8 02:25:15 20° WSW 02:27:14 88° NW 02:30:22 10° ENE
STARLINK-1342 2.8 02:25:35 20° WSW 02:27:34 87° NW 02:30:43 10° ENE
STARLINK-1374 3.1 02:25:26 19° SW 02:27:49 85° SSE 02:31:20 10° ENE
STARLINK-1364 2.8 02:25:55 20° WSW 02:27:55 87° NW 02:31:03 10° ENE
STARLINK-1376 2.8 02:26:15 20° WSW 02:28:16 86° NNW 02:31:24 10° ENE
IRS-1C 4.1 02:23:03 10° NNE 02:28:25 84° WNW 02:33:25 12° SSW
STARLINK-1360 2.8 02:26:30 20° WSW 02:28:32 86° NNW 02:31:41 10° ENE
STARLINK-1245 3.5 02:24:25 10° WNW 02:28:33 71° SSW 02:32:40 10° SE
STARLINK-1361 2.8 02:26:56 20° WSW 02:28:59 85° NNW 02:32:07 10° ENE
STARLINK-1367 2.8 02:27:10 19° WSW 02:29:15 85° NW 02:32:26 10° ENE
CSL-04 DEB 4.5 02:25:22 10° SSE 02:29:35 79° WSW 02:33:57 10° NNW
STARLINK-1366 2.8 02:27:33 19° WSW 02:29:37 84° NNW 02:32:45 10° ENE
STARLINK-1339 3.1 02:27:27 18° WSW 02:29:54 87° SSE 02:33:25 10° ENE
SL-4 R/B 3.2 02:25:55 10° W 02:30:35 48° N 02:35:05 10° ENE
CZ-4B R/B 4.4 02:26:34 10° N 02:31:15 36° WNW 02:35:13 14° SW
STARLINK-1377 3.1 02:29:28 18° WSW 02:32:00 90° N 02:35:31 10° ENE
Cosmos 2297 Rocket 2.7 02:27:14 10° NW 02:32:27 39° WSW 02:37:38 10° S
STARLINK-1233 3.5 02:29:23 10° WNW 02:33:30 66° SW 02:37:36 10° SE
STARLINK-1353 3.1 02:31:17 17° WSW 02:33:51 88° NNW 02:37:21 10° ENE
STARLINK-1375 3.1 02:33:04 16° WSW 02:35:43 85° NNW 02:39:13 10° ENE
Cosmos 2082 3.7 02:30:40 10° NNW 02:36:19 71° WSW 02:41:54 10° SSE
Cosmos 540 Rocket 3.7 02:32:22 10° SSW 02:37:24 72° ESE 02:42:32 10° NNE
ATLAS CENTAUR R/B 3.8 02:35:22 10° WNW 02:37:44 14° NNW 02:40:01 10° N
STARLINK-1350 3.2 02:35:22 15° WSW 02:38:07 82° NNW 02:41:37 10° ENE
Cosmos 990 Rocket 4.4 02:33:20 10° NW 02:38:16 41° WSW 02:43:09 10° S
STARLINK-1204 3.6 02:34:23 10° WNW 02:38:29 61° SW 02:42:34 10° SE
FALCON 9 DEB 4.0 02:35:24 10° W 02:38:41 45° NNW 02:42:02 10° NE
STARLINK-29 4.5 02:37:35 10° W 02:40:31 32° NNW 02:43:26 10° NE
STARLINK-1352 3.2 02:37:40 15° WSW 02:40:33 79° NNW 02:44:04 10° ENE
OE (NEXTSAT) 4.3 02:37:13 10° W 02:40:43 88° S 02:44:12 10° E
Landsat 5 4.2 02:36:50 10° SSE 02:41:15 63° ENE 02:45:45 10° N
Cosmos 1825 Rocket 4.3 02:38:21 15° SW 02:41:36 37° WNW 02:45:39 10° N
Cosmos 2278 4.0 02:36:14 10° SSW 02:41:49 67° ESE 02:47:27 10° NNE
Cosmos 1455 3.6 02:39:14 10° NW 02:42:08 21° W 02:44:16 14° SW
STARLINK-1368 3.3 02:39:45 14° WSW 02:42:43 76° NNW 02:46:15 10° ENE
CZ-2D R/B 3.7 02:38:40 10° NNE 02:42:46 71° ESE 02:46:58 10° S
STARLINK-1238 3.7 02:39:21 10° WNW 02:43:25 56° SW 02:47:28 10° SE
Meteor 1-11 4.2 02:38:24 10° SSW 02:44:02 79° W 02:49:41 10° N
Meteor 1-28 Rocket 3.1 02:40:26 10° S 02:44:12 71° WSW 02:47:59 10° NNW
USA 234 4.1 02:38:18 10° ENE 02:44:23 40° SE 02:50:27 10° SSW
STARLINK-1369 3.3 02:41:37 13° WSW 02:44:38 74° NNW 02:48:08 10° ENE
SL-16 R/B 3.9 02:41:07 13° SW 02:44:43 20° W 02:49:07 10° NW
ATLAS CENTAUR R/B 3.0 02:43:36 10° WNW 02:46:55 35° SW 02:54:07 10° SSE
STARLINK-1372 3.3 02:43:58 12° WSW 02:47:07 71° NNW 02:50:38 10° ENE
Cosmos 2074 Rocket 4.0 02:41:08 10° SSW 02:47:26 79° W 02:53:46 10° N
Cosmos 2263 Rocket 3.8 02:42:55 10° NNW 02:48:13 40° NE 02:53:26 10° ESE
STARLINK-1201 3.7 02:44:22 10° WNW 02:48:25 52° SW 02:52:25 10° SE
STARLINK-1378 3.4 02:46:05 12° WSW 02:49:20 69° NNW 02:52:52 10° ENE
Cosmos 841 Rocket 3.5 02:44:28 10° SSW 02:49:42 85° WNW 02:54:58 10° NNE
STARLINK-1329 3.4 02:46:35 12° WSW 02:49:51 69° NNW 02:53:24 10° ENE
Cosmos 372 Rocket 4.1 02:44:54 10° NNW 02:50:02 81° ENE 02:55:11 10° SSE
GP-B 4.4 02:46:37 10° NNW 02:50:14 25° WNW 02:53:37 11° SW
STARLINK-1365 3.4 02:47:17 11° WSW 02:50:35 65° NNW 02:54:07 10° ENE
STARLINK-1240 4.4 02:46:36 10° NW 02:50:41 56° NNE 02:54:46 10° ESE
IRS-1D 4.4 02:46:08 10° N 02:51:00 37° WNW 02:55:45 10° SW
STARLINK-1379 3.4 02:48:13 11° WSW 02:51:33 67° NNW 02:55:05 10° ENE
STARLINK-1362 3.4 02:48:47 11° WSW 02:52:09 66° NNW 02:55:41 10° ENE
STARLINK-1206 3.8 02:49:22 10° WNW 02:53:22 48° SW 02:57:20 10° SE
Cosmos-2242 4.1 02:50:10 10° NNW 02:53:44 26° W 02:57:16 10° SW
COBE Rocket 4.0 02:49:24 10° S 02:54:15 61° W 02:59:17 10° NNW
STARLINK-1373 3.5 02:50:59 10° WSW 02:54:27 64° NNW 02:58:00 10° NE
Cosmos 1869 4.0 02:50:38 10° N 02:54:30 57° ENE 02:58:18 10° SSE
Cosmos 1400 Rocket 3.0 02:51:03 10° NNW 02:55:05 55° W 02:59:07 10° S
STARLINK-1216 4.3 02:51:35 10° WNW 02:55:41 59° NNE 02:59:46 10° ESE
Cosmos 2221 2.8 02:51:34 10° N 02:55:54 71° E 03:00:13 10° SSE
STARLINK-1390 3.5 02:53:00 10° WSW 02:56:31 62° NNW 03:00:02 10° NE
ATLAS 3B R/B 4.4 02:55:01 10° W 02:57:04 11° WSW 02:59:09 10° WSW
STARLINK-1205 3.9 02:54:22 10° WNW 02:58:19 44° SW 03:02:15 10° SSE
Cosmos 2184 Rocket 4.1 02:52:49 10° SSW 02:58:59 67° W 03:05:09 10° N
SL-08 R/B 3.9 02:55:29 10° SSW 02:59:49 36° W 03:04:08 10° NNW
CZ-4C R/B 3.0 02:56:35 10° S 03:00:09 73° WSW 03:03:48 10° NNW
STARLINK-1237 4.2 02:56:34 10° WNW 03:00:42 62° NNE 03:04:47 10° ESE
STARLINK-1218 4.0 02:59:22 10° WNW 03:03:16 40° SW 03:07:08 10° SSE
STARLINK-1202 4.1 03:01:33 10° WNW 03:05:41 66° NNE 03:09:48 10° ESE
CZ-2D R/B 4.0 03:03:45 10° NNW 03:06:49 16° NW 03:09:51 10° W
Cosmos 2227 Rocket 3.3 03:03:20 10° NW 03:07:48 24° WSW 03:12:14 10° SSW
STARLINK-1254 4.1 03:04:23 10° WNW 03:08:13 37° SW 03:12:03 10° SSE
Cosmos 1763 Rocket 4.4 03:04:03 10° SW 03:08:42 34° WNW 03:13:20 10° N
ADEOS II 3.1 03:05:04 10° N 03:09:42 33° WNW 03:14:20 10° SW
Cosmos 1697 Rocket 3.1 03:05:16 10° SW 03:10:47 52° WNW 03:16:20 10° NNE
Cosmos 2150 Rocket 4.0 03:06:51 10° NNW 03:12:05 86° WSW 03:17:13 10° SSE
STARLINK-1231 4.2 03:09:25 10° WNW 03:13:11 34° SW 03:16:57 10° SSE
Cosmos 1315 Rocket 2.8 03:11:13 10° N 03:15:09 90° NNW 03:19:04 10° S
STARLINK-1246 3.9 03:11:29 10° WNW 03:15:38 75° NNE 03:19:47 10° ESE
SL-16 R/B 3.8 03:11:44 10° SSE 03:16:43 33° ESE 03:21:44 10° NE
MSX 4.1 03:11:54 10° NNE 03:17:41 74° ESE 03:23:26 10° S
